Location: Mauna Kea VIS
(19.7591°N, 155.4561°W)
Time: 01:10:34
(UTC-10:00)

Daily predictions for brighter satellites

Satellite Brightness Start Highest point End
(mag) Time Altitude Azimuth Time Altitude Azimuth Time Altitude Azimuth
CZ-3B DEB 4.5 00:59:08 10° NNW 01:24:38 54° NE 01:27:10 48° ENE
ATLAS 2AS CENTAUR R/B 4.0 02:10:23 10° NNW 02:15:23 38° N 02:15:23 38° N
Resurs 1-4 Rocket 4.5 02:22:40 10° NE 02:24:16 19° NE 02:24:16 19° NE
ATLAS CENTAUR R/B 4.1 02:47:45 21° NE 02:47:45 21° NE 02:49:25 10° NNE
Cosmos 1697 Rocket 4.3 02:49:19 30° ENE 02:49:19 30° ENE 02:52:39 10° NE
Cosmos 1980 Rocket 4.0 02:54:22 23° E 02:54:22 23° E 02:58:07 10° NE
ATLAS CENTAUR R/B 4.1 02:56:12 49° SE 02:56:56 50° ESE 03:12:50 10° NE
CZ-3 R/B 4.1 01:57:06 10° SW 02:58:50 75° SSE 03:10:25 10° ENE
Cosmos 2227 Rocket 3.8 03:01:53 10° N 03:06:47 30° ENE 03:10:13 17° ESE
CZ-2D R/B 3.4 03:05:50 10° N 03:08:53 35° N 03:08:53 35° N
ARIANE 5 R/B 4.4 03:09:41 10° N 03:11:31 22° NNW 03:11:31 22° NNW
Cosmos 2297 Rocket 3.8 03:24:02 10° N 03:29:03 32° ENE 03:34:02 10° SE
Delta 7925 Rocket 4.4 03:32:31 41° N 03:32:43 41° N 03:37:16 10° ENE
Meteor 1-24 Rocket 4.2 03:27:28 10° N 03:33:08 60° E 03:34:44 45° SE
Cosmos 2298 Rocket 4.3 03:28:08 10° N 03:33:18 63° ENE 03:33:18 63° ENE
GEOS 3 Rocket 3.7 03:36:22 53° ESE 03:37:31 71° ENE 03:42:41 10° NNW
IRS-1C Rocket 4.1 03:35:16 10° NNE 03:40:07 77° NNE 03:40:07 77° NNE
Mugunghwa Rocket 4.2 03:38:55 47° NW 03:40:37 64° NNE 03:46:51 10° E
PAYLOAD B 4.4 03:35:24 10° NNE 03:40:57 66° ESE 03:41:45 58° SE
CZ-4B R/B 4.3 03:38:56 10° NNE 03:41:41 35° ENE 03:41:41 35° ENE
ADEOS II 4.3 03:41:44 10° NE 03:45:31 20° E 03:49:17 10° SE
CZ-3A R/B 4.4 03:41:57 11° SE 03:46:06 24° E 03:59:02 10° NE
Cosmos 1092 Rocket 4.2 03:45:14 10° N 03:51:29 69° E 03:56:13 19° SSE
Cosmos 540 Rocket 4.3 03:52:02 34° SSE 03:53:41 47° ESE 03:58:37 10° NNE
Delta 128 3.6 03:58:44 73° SE 03:58:44 73° SE 04:03:38 10° ENE
Cosmos 2142 Rocket 4.3 04:00:47 51° SSW 04:02:23 74° W 04:08:31 10° N
CZ-4B R/B 3.0 03:56:59 10° N 04:02:29 78° WNW 04:03:33 58° SW
SL-16 R/B 3.0 04:04:59 38° W 04:04:59 38° W 04:09:49 10° NNW
Resurs 1-4 Rocket 4.0 04:03:31 10° NNW 04:05:20 15° NW 04:05:20 15° NW
Okean O Rocket 2.4 04:05:23 10° N 04:08:41 37° NW 04:08:41 37° NW
SWIFT 2.2 04:09:32 77° NNW 04:09:41 79° N 04:13:54 10° E
ADEOS Rocket 4.3 04:03:30 10° NNE 04:09:52 44° ESE 04:16:48 10° S
Ariane H10 4.3 04:10:02 23° S 04:11:25 25° SSE 04:22:30 10° ESE
Cosmos 2150 Rocket 4.0 04:07:59 10° NNW 04:13:00 53° WSW 04:13:11 53° WSW
Cosmos 858 Rocket 4.4 04:09:02 10° NNW 04:14:10 59° WSW 04:15:35 43° SSW
Cosmos 1470 3.6 04:13:19 27° SSE 04:15:05 48° E 04:18:51 10° NNE
Cosmos 783 Rocket 4.5 04:13:59 37° S 04:16:06 86° ESE 04:21:25 10° NNE
CZ-2C R/B 3.6 04:16:37 21° S 04:19:46 81° WSW 04:24:29 10° NNW
Cosmos 1758 4.4 04:22:12 30° NW 04:22:12 30° NW 04:24:58 10° NNW
Milstar 3 Cent rocket 3.8 04:17:51 16° WNW 04:22:24 45° N 04:32:41 10° ENE
ATLAS CENTAUR R/B 4.1 04:24:06 10° NW 04:24:06 10° NW 04:24:35 10° NW
Cosmos 2279 Rocket 3.9 04:19:26 20° S 04:23:58 84° W 04:30:14 10° N
Cosmos 990 Rocket 3.9 04:18:50 10° NNW 04:24:05 88° ENE 04:29:20 10° SSE
Cosmos 1743 Rocket 3.9 04:20:20 10° N 04:24:37 63° E 04:28:55 10° SSE
Orbus 7S 3.9 04:27:57 29° NW 04:29:01 46° NNE 04:33:36 10° E
Cosmos 1953 3.8 04:30:25 23° WNW 04:30:25 23° WNW 04:32:47 10° NNW
MOZ.5/SAFIR/RUBIN 5/SL-8 3.7 04:26:49 14° S 04:30:55 69° WSW 04:35:37 10° NNW
Cosmos 1697 Rocket 4.3 04:31:05 17° WNW 04:31:21 17° WNW 04:34:59 10° NNW
Cosmos 1898 Rocket 4.3 04:30:22 10° NW 04:34:57 30° W 04:35:08 30° WSW
Cosmos 1655 Rocket 4.1 04:28:56 10° N 04:35:20 81° E 04:41:43 10° S
GPS 2-05 Rocket1 3.3 04:36:40 36° S 04:36:40 36° S 04:38:59 10° SE
Cosmos 2082 4.3 04:31:30 10° NW 04:36:28 33° WSW 04:38:43 24° SW
Cosmos 1980 Rocket 3.2 04:36:10 25° W 04:37:27 27° WNW 04:42:10 10° NNW
Cosmos 2360 Rocket 4.2 04:33:44 10° SSE 04:38:13 25° ESE 04:42:43 10° NE
Cosmos 1674 4.1 04:36:14 10° NNE 04:39:44 37° E 04:43:13 10° SSE
SL-8 R/B 3.8 04:37:12 10° NW 04:41:58 76° NE 04:46:43 10° SE
Cosmos 1544 3.8 04:41:52 32° W 04:42:08 32° W 04:45:27 10° NNW
GRACE-1 4.3 04:42:05 14° SSE 04:44:22 64° E 04:47:12 10° N
GRACE-2 4.3 04:42:28 14° SSE 04:44:47 65° E 04:47:37 10° N
Okean-O 2.8 04:41:25 10° N 04:45:44 54° WNW 04:48:32 21° SSW
Cosmos 2322 Rocket 2.1 04:41:49 19° SSW 04:45:58 73° WNW 04:51:34 10° NNE
Cosmos 332 Rocket 4.2 04:46:22 25° SW 04:48:38 41° WNW 04:53:09 10° N
In-Cosmos 22 4.2 04:43:57 10° NNW 04:49:04 52° W 04:54:12 10° S
Thor Agena Rocket 3.5 04:44:08 10° S 04:49:08 61° WSW 04:54:06 10° NNW
Cosmos 2221 3.1 04:45:55 10° S 04:50:04 57° E 04:54:14 10° NNE
Cosmos 2227 Rocket 3.3 04:46:18 10° NW 04:50:33 22° WSW 04:51:44 21° WSW
SEDSat Delta rocket 3.5 04:46:57 10° WNW 04:52:02 88° SSW 04:57:56 10° ESE
Cosmos 1937 Rocket 4.3 04:49:34 10° NW 04:53:54 27° W 04:58:15 10° SSW
Meteor 1-31 Rocket 3.0 04:50:54 10° NNE 04:54:46 69° E 04:58:35 10° S
Meteor PRIRODA 4.3 05:04:14 10° N 05:07:36 36° WNW 05:10:43 12° SW
Aureole 1 Rocket 4.3 05:04:30 16° SW 05:07:43 33° WNW 05:13:05 10° N
Cosmos 1437 3.6 05:05:48 10° NNW 05:08:47 31° W 05:11:45 10° SSW
Cosmos 371 Rocket 3.9 05:06:55 13° SW 05:10:50 37° WNW 05:15:16 10° N
GPS 2-12 Rocket1 3.2 05:08:32 15° WSW 05:12:13 62° SSE 05:16:46 10° E
Cosmos 2297 Rocket 3.4 05:08:45 10° NW 05:12:45 20° WSW 05:16:45 10° SSW
SL-16 R/B 2.8 05:10:44 11° SW 05:15:49 38° WNW 05:21:04 10° N
Cosmos 1538 Rocket 4.3 05:14:29 10° SSW 05:19:30 49° WNW 05:24:35 10° N
OAO 3 Rocket 3.2 05:16:15 10° WNW 05:20:57 82° NNE 05:25:35 10° ESE
Cosmos 923 Rocket 4.4 05:19:02 10° S 05:24:14 69° ESE 05:29:24 10° NNE
ADEOS II 3.0 05:20:36 10° NNW 05:25:06 30° WNW 05:29:36 10° SW
Aurora 2 Rocket 3.4 05:22:38 10° WNW 05:25:51 37° N 05:29:59 10° ENE
Delta 7925 Rocket 3.5 05:23:16 10° WNW 05:28:07 69° NNE 05:32:43 10° E
Elektron 1 4.0 05:25:29 10° SW 05:28:27 52° WNW 05:31:30 10° NNE
NOAA 6 4.2 05:23:55 10° N 05:28:54 56° WNW 05:33:53 10° SSW
Cosmos 2322 3.8 05:23:51 10° SSW 05:29:32 84° ESE 05:35:16 10° NNE
NOSS 3-4 (A) 4.1 05:24:19 10° NW 05:31:18 50° WSW 05:38:35 10° S
NOSS 3-4 (C) 4.1 05:24:25 10° NW 05:31:26 50° WSW 05:38:46 10° S
Cosmos 2228 Rocket 3.6 05:27:58 10° S 05:32:19 66° E 05:36:44 10° NNE
DELTA 2 R/B (1) 4.2 05:28:15 10° WSW 05:33:36 47° NNW 05:38:58 10° NE
Centaur D-1AR AC-41 2.8 05:30:43 10° W 05:34:25 89° SSW 05:39:58 10° E
CSL-04 Rocket 3.9 05:30:03 10° NNE 05:35:36 85° ESE 05:41:06 10° SSW
Mugunghwa Rocket 4.2 05:30:10 10° W 05:36:15 53° SSW 05:42:31 10° SE
Intelsat 5-1 Rocket 3.7 05:35:22 10° WSW 05:51:28 90° E 05:56:31 10° ENE
